TIANZHOU-9

Last updated on Sun Apr 12 2026 00:02:13 GMT+0000 (Coordinated Universal Time)

1 64786U 25149A 26101.46204559 .00021127 00000+0 23577-3 0 9996 2 64786 41.4684 8.5089 0004896 185.3239 174.7549 15.62269291283135

Satellite not in orbit

TIANZHOU-9